When you browse on this site, cookies collect data to enhance your experience and personalize the content and advertising you see.
Visit our Privacy Policy to learn more. By continuing to use the site, you agree to this use of cookies and data.
EN

Hourly Weather Shaki

Today, 7 July, Tuesday

Time Temperature Precipitation Wind Pressure Humidity
00:00 +27°C° 0 mm 3 mps 730 mmHg 30%
01:00 +26°C° 0 mm 2 mps 730 mmHg 31%
02:00 +26°C° 0 mm 2 mps 730 mmHg 32%
03:00 +26°C° 0 mm 2 mps 730 mmHg 34%
04:00 +27°C° 0 mm 2 mps 730 mmHg 34%
05:00 +28°C° 0 mm 1 mps 730 mmHg 33%
06:00 +29°C° 0 mm 1 mps 730 mmHg 33%
07:00 +31°C° 0 mm 2 mps 731 mmHg 29%
08:00 +34°C° 0 mm 3 mps 731 mmHg 26%
09:00 +36°C° 0 mm 3 mps 731 mmHg 22%
10:00 +37°C° 0 mm 4 mps 730 mmHg 20%
11:00 +39°C° 0 mm 5 mps 730 mmHg 19%
12:00 +40°C° 0 mm 5 mps 730 mmHg 17%
13:00 +40°C° 0 mm 5 mps 730 mmHg 17%
14:00 +41°C° 0 mm 5 mps 729 mmHg 16%
15:00 +41°C° 0 mm 5 mps 729 mmHg 16%
16:00 +40°C° 0 mm 5 mps 729 mmHg 17%
17:00 +39°C° 0 mm 5 mps 729 mmHg 19%
18:00 +39°C° 0 mm 5 mps 729 mmHg 20%
19:00 +35°C° 0 mm 4 mps 729 mmHg 23%
20:00 +33°C° 0 mm 4 mps 729 mmHg 26%
21:00 +29°C° 0 mm 4 mps 730 mmHg 28%
22:00 +28°C° 0 mm 3 mps 730 mmHg 29%
23:00 +28°C° 0 mm 3 mps 730 mmHg 31%

Tomorrow, 8 July, Wednesday

Time Temperature Precipitation Wind Pressure Humidity
00:00 +27°C° 0 mm 2 mps 730 mmHg 32%
01:00 +26°C° 0 mm 2 mps 730 mmHg 32%
02:00 +26°C° 0 mm 2 mps 730 mmHg 33%
03:00 +25°C° 0 mm 1 mps 730 mmHg 34%
04:00 +26°C° 0 mm 1 mps 730 mmHg 34%
05:00 +27°C° 0 mm 1 mps 730 mmHg 33%
06:00 +26°C° 0 mm 0 mps 730 mmHg 33%
07:00 +30°C° 0 mm 1 mps 730 mmHg 30%
08:00 +32°C° 0 mm 1 mps 730 mmHg 27%
09:00 +35°C° 0 mm 2 mps 730 mmHg 24%
10:00 +36°C° 0 mm 2 mps 730 mmHg 22%
11:00 +37°C° 0 mm 2 mps 729 mmHg 21%
12:00 +38°C° 0 mm 2 mps 729 mmHg 19%
13:00 +39°C° 0 mm 2 mps 729 mmHg 19%
14:00 +39°C° 0 mm 2 mps 728 mmHg 18%
15:00 +40°C° 0 mm 2 mps 728 mmHg 18%
16:00 +40°C° 0 mm 2 mps 728 mmHg 19%
17:00 +39°C° 0 mm 2 mps 728 mmHg 20%
18:00 +39°C° 0 mm 2 mps 728 mmHg 21%
19:00 +37°C° 0 mm 3 mps 728 mmHg 24%
20:00 +34°C° 0 mm 3 mps 729 mmHg 27%
21:00 +32°C° 0 mm 4 mps 729 mmHg 30%
22:00 +30°C° 0 mm 3 mps 729 mmHg 31%
23:00 +29°C° 0 mm 2 mps 729 mmHg 32%

Day after tomorrow, 9 July, Thursday

Time Temperature Precipitation Wind Pressure Humidity
00:00 +29°C° 0 mm 1 mps 729 mmHg 33%
01:00 +28°C° 0 mm 1 mps 730 mmHg 35%
02:00 +27°C° 0 mm 1 mps 730 mmHg 38%
03:00 +27°C° 0 mm 1 mps 730 mmHg 40%
04:00 +28°C° 0 mm 1 mps 730 mmHg 40%
05:00 +29°C° 0 mm 1 mps 730 mmHg 40%
06:00 +30°C° 0 mm 1 mps 731 mmHg 40%
07:00 +31°C° 0.1 mm 2 mps 731 mmHg 38%
08:00 +32°C° 0.1 mm 2 mps 731 mmHg 36%
09:00 +34°C° 0.1 mm 2 mps 731 mmHg 34%
10:00 +36°C° 0.1 mm 2 mps 731 mmHg 30%
11:00 +37°C° 0.1 mm 2 mps 731 mmHg 27%
12:00 +39°C° 0.1 mm 3 mps 731 mmHg 24%
13:00 +39°C° 0 mm 3 mps 731 mmHg 24%
14:00 +40°C° 0 mm 3 mps 731 mmHg 24%
15:00 +41°C° 0 mm 4 mps 731 mmHg 24%
16:00 +40°C° 0.1 mm 4 mps 731 mmHg 25%
17:00 +40°C° 0.1 mm 4 mps 731 mmHg 27%
18:00 +38°C° 0.1 mm 4 mps 731 mmHg 28%
19:00 +36°C° 0.1 mm 4 mps 732 mmHg 34%
20:00 +34°C° 0.1 mm 3 mps 732 mmHg 40%
21:00 +31°C° 0.1 mm 3 mps 733 mmHg 46%
22:00 +29°C° 0 mm 3 mps 733 mmHg 49%
23:00 +28°C° 0 mm 2 mps 733 mmHg 52%

10 July, Friday

Time Temperature Precipitation Wind Pressure Humidity
00:00 +27°C° 0 mm 2 mps 733 mmHg 55%
01:00 +27°C° 0 mm 2 mps 733 mmHg 56%
02:00 +26°C° 0 mm 2 mps 733 mmHg 57%
03:00 +26°C° 0 mm 2 mps 733 mmHg 58%
04:00 +27°C° 0 mm 2 mps 734 mmHg 57%
05:00 +27°C° 0 mm 2 mps 734 mmHg 57%
06:00 +28°C° 0 mm 2 mps 734 mmHg 56%
07:00 +29°C° 0 mm 2 mps 734 mmHg 52%
08:00 +31°C° 0 mm 2 mps 734 mmHg 48%
09:00 +33°C° 0 mm 3 mps 735 mmHg 44%
10:00 +34°C° 0.1 mm 3 mps 734 mmHg 42%
11:00 +35°C° 0.1 mm 3 mps 734 mmHg 40%
12:00 +36°C° 0.1 mm 4 mps 734 mmHg 37%
13:00 +36°C° 0.2 mm 3 mps 734 mmHg 37%
14:00 +36°C° 0.2 mm 3 mps 733 mmHg 37%
15:00 +36°C° 0.2 mm 2 mps 733 mmHg 38%
16:00 +36°C° 0.1 mm 2 mps 733 mmHg 37%
17:00 +36°C° 0.1 mm 2 mps 733 mmHg 36%
18:00 +36°C° 0.1 mm 3 mps 733 mmHg 35%
19:00 +34°C° 0.2 mm 3 mps 733 mmHg 44%
20:00 +32°C° 0.2 mm 4 mps 734 mmHg 53%
21:00 +28°C° 0.2 mm 4 mps 734 mmHg 61%
22:00 +28°C° 0.4 mm 3 mps 734 mmHg 64%
23:00 +27°C° 0.4 mm 3 mps 734 mmHg 67%

11 July, Saturday

Time Temperature Precipitation Wind Pressure Humidity
00:00 +26°C° 0.4 mm 2 mps 734 mmHg 70%
01:00 +26°C° 0.8 mm 2 mps 734 mmHg 72%
02:00 +25°C° 0.8 mm 1 mps 734 mmHg 73%
03:00 +25°C° 0.8 mm 1 mps 734 mmHg 75%
04:00 +25°C° 0.8 mm 1 mps 734 mmHg 74%
05:00 +26°C° 0.8 mm 1 mps 734 mmHg 73%
06:00 +26°C° 0.8 mm 1 mps 734 mmHg 72%
07:00 +27°C° 0.4 mm 1 mps 734 mmHg 68%
08:00 +28°C° 0.4 mm 1 mps 734 mmHg 64%
09:00 +29°C° 0.4 mm 2 mps 734 mmHg 60%
10:00 +30°C° 0.4 mm 2 mps 734 mmHg 55%
11:00 +32°C° 0.4 mm 2 mps 734 mmHg 49%
12:00 +34°C° 0.4 mm 2 mps 733 mmHg 44%
13:00 +35°C° 0.1 mm 2 mps 733 mmHg 42%
14:00 +35°C° 0.1 mm 2 mps 733 mmHg 40%
15:00 +36°C° 0.1 mm 2 mps 732 mmHg 37%
16:00 +35°C° 0.2 mm 2 mps 732 mmHg 39%
17:00 +35°C° 0.2 mm 2 mps 732 mmHg 41%
18:00 +34°C° 0.2 mm 2 mps 732 mmHg 43%
19:00 +32°C° 0.3 mm 2 mps 732 mmHg 47%
20:00 +31°C° 0.3 mm 2 mps 732 mmHg 51%
21:00 +30°C° 0.3 mm 2 mps 732 mmHg 55%
22:00 +28°C° 0.4 mm 2 mps 732 mmHg 59%
23:00 +27°C° 0.4 mm 2 mps 732 mmHg 64%

12 July, Sunday

Time Temperature Precipitation Wind Pressure Humidity
00:00 +26°C° 0.4 mm 2 mps 732 mmHg 68%
01:00 +26°C° 0.5 mm 2 mps 731 mmHg 69%
02:00 +26°C° 0.5 mm 2 mps 731 mmHg 69%
03:00 +25°C° 0.5 mm 1 mps 731 mmHg 70%
04:00 +26°C° 0.2 mm 1 mps 731 mmHg 69%
05:00 +26°C° 0.2 mm 1 mps 731 mmHg 68%
06:00 +27°C° 0.2 mm 1 mps 731 mmHg 66%
07:00 +27°C° 0 mm 1 mps 731 mmHg 63%
08:00 +28°C° 0 mm 1 mps 731 mmHg 60%
09:00 +29°C° 0 mm 1 mps 731 mmHg 57%
10:00 +30°C° 0.1 mm 1 mps 731 mmHg 52%
11:00 +32°C° 0.1 mm 1 mps 731 mmHg 47%
12:00 +33°C° 0.1 mm 1 mps 730 mmHg 42%
13:00 +35°C° 0.2 mm 2 mps 730 mmHg 39%
14:00 +36°C° 0.2 mm 2 mps 730 mmHg 37%
15:00 +36°C° 0.2 mm 3 mps 729 mmHg 35%
16:00 +36°C° 0.1 mm 3 mps 729 mmHg 36%
17:00 +35°C° 0.1 mm 2 mps 729 mmHg 38%
18:00 +35°C° 0.1 mm 2 mps 729 mmHg 39%
19:00 +32°C° 0.2 mm 2 mps 729 mmHg 44%
20:00 +30°C° 0.2 mm 2 mps 729 mmHg 50%
21:00 +29°C° 0.2 mm 2 mps 729 mmHg 55%
22:00 +28°C° 0.8 mm 2 mps 729 mmHg 61%
23:00 +27°C° 0.8 mm 2 mps 729 mmHg 67%
Show more